H1 CPF 2 NER 2024 1 19 9 019 01 glonass147 H2 2311401 9147 57517 2024 1 19 0 0 0 2024 1 22 23 45 0 900 1 1 0 0 0 1 H9 10 0 60328 0.00000 0 16514451.992 4623663.010 18895783.335 10 0 60328 900.00000 0 14169039.022 5269578.910 20561066.048 10 0 60328 1800.00000 0 11709862.984 6151613.517 21827602.781 10 0 60328 2700.00000 0 9205021.632 7266949.712 22670964.482 10 0 60328 3600.00000 0 6722076.805 8600335.132 23074919.862 10 0 60328 4500.00000 0 4325435.546 10124554.775 23031738.115 10 0 60328 5400.00000 0 2073877.275 11801416.984 22542329.661 10 0 60328 6300.00000 0 18327.996 13583212.166 21616222.973 10 0 60328 7200.00000 0 -1800027.903 15414584.219 20271378.375 10 0 60328 8100.00000 0 -3351221.648 17234737.711 18533842.397 10 0 60328 9000.00000 0 -4617500.339 18979890.045 16437248.944 10 0 60328 9900.00000 0 -5593813.278 20585867.540 14022176.217 10 0 60328 10800.00000 0 -6287765.255 21990738.293 11335370.812 10 0 60328 11700.00000 0 -6719039.595 23137372.759 8428852.931 10 0 60328 12600.00000 0 -6918315.589 23975825.592 5358918.910 10 0 60328 13500.00000 0 -6925726.008 24465439.242 2185059.425 10 0 60328 14400.00000 0 -6788919.556 24576581.006 -1031186.499 10 0 60328 15300.00000 0 -6560809.847 24291940.034 -4227419.943 10 0 60328 16200.00000 0 -6297105.799 23607328.910 -7341590.268 10 0 60328 17100.00000 0 -6053727.833 22531954.955 -10313199.572 10 0 60328 18000.00000 0 -5884219.321 21088148.432 -13084479.854 10 0 60328 18900.00000 0 -5837263.244 19310557.633 -15601519.641 10 0 60328 19800.00000 0 -5954409.837 17244843.154 -17815317.811 10 0 60328 20700.00000 0 -6268112.309 14945924.860 -19682743.531 10 0 60328 21600.00000 0 -6800154.906 12475853.817 -21167383.208 10 0 60328 22500.00000 0 -7560541.157 9901397.377 -22240257.445 10 0 60328 23400.00000 0 -8546890.766 7291437.749 -22880393.582 10 0 60328 24300.00000 0 -9744372.196 4714292.309 -23075242.184 10 0 60328 25200.00000 0 -11126175.346 2235067.238 -22820928.948 10 0 60328 26100.00000 0 -12654505.804 -86845.146 -22122336.606 10 0 60328 27000.00000 0 -14282060.040 -2200021.064 -20993014.802 10 0 60328 27900.00000 0 -15953920.368 -4062917.983 -19454919.267 10 0 60328 28800.00000 0 -17609790.497 -5645365.725 -17537985.006 10 0 60328 29700.00000 0 -19186477.821 -6929574.158 -15279541.614 10 0 60328 30600.00000 0 -20620517.860 -7910616.058 -12723582.030 10 0 60328 31500.00000 0 -21850829.957 -8596366.009 -9919899.197 10 0 60328 32400.00000 0 -22821291.791 -9006899.313 -6923107.893 10 0 60328 33300.00000 0 -23483123.619 -9173377.948 -3791571.451 10 0 60328 34200.00000 0 -23796981.140 -9136472.372 -586255.251 10 0 60328 35100.00000 0 -23734668.369 -8944387.822 2630469.667 10 0 60328 36000.00000 0 -23280398.168 -8650580.421 5796048.481 10 0 60328 36900.00000 0 -22431547.372 -8311261.430 8848965.114 10 0 60328 37800.00000 0 -21198875.305 -7982796.781 11729940.898 10 0 60328 38700.00000 0 -19606196.952 -7719112.853 14383085.550 10 0 60328 39600.00000 0 -17689525.186 -7569218.830 16756977.908 10 0 60328 40500.00000 0 -15495718.864 -7574950.558 18805655.882 10 0 60328 41400.00000 0 -13080693.811 -7769030.905 20489497.081 10 0 60328 42300.00000 0 -10507271.800 -8173527.890 21775974.115 10 0 60328 43200.00000 0 -7842757.076 -8798774.852 22640271.238 10 0 60328 44100.00000 0 -5156340.756 -9642797.415 23065751.774 10 0 60328 45000.00000 0 -2516440.059 -10691270.821 23044268.582 10 0 60328 45900.00000 0 11918.511 -11918009.228 22576312.725 10 0 60328 46800.00000 0 2369565.096 -13285966.635 21670998.263 10 0 60328 47700.00000 0 4505401.048 -14748708.047 20345883.908 10 0 60328 48600.00000 0 6378272.107 -16252290.205 18626634.982 10 0 60328 49500.00000 0 7958424.182 -17737474.321 16546531.841 10 0 60328 50400.00000 0 9228482.786 -19142179.476 14145833.525 10 0 60328 51300.00000 0 10183916.638 -20404075.212 11471007.990 10 0 60328 52200.00000 0 10832967.100 -21463205.840 8573842.688 10 0 60328 53100.00000 0 11196047.007 -22264537.195 5510451.667 10 0 60328 54000.00000 0 11304634.490 -22760319.459 2340197.377 10 0 60328 54900.00000 0 11199708.324 -22912166.798 -875452.711 10 0 60328 55800.00000 0 10929790.624 -22692765.971 -4074113.046 10 0 60328 56700.00000 0 10548679.273 -22087141.201 -7193687.773 10 0 60328 57600.00000 0 10112965.714 -21093420.883 -10173575.956 10 0 60328 58500.00000 0 9679443.033 -19723072.382 -12955850.617 10 0 60328 59400.00000 0 9302514.108 -18000593.413 -15486388.375 10 0 60328 60300.00000 0 9031709.856 -15962671.231 -17715927.279 10 0 60328 61200.00000 0 8909423.205 -13656843.314 -19601031.759 10 0 60328 62100.00000 0 8968955.414 -11139714.147 -21104945.420 10 0 60328 63000.00000 0 9232958.391 -8474801.511 -22198314.624 10 0 60328 63900.00000 0 9712339.968 -5730101.306 -22859768.266 10 0 60328 64800.00000 0 10405679.576 -2975471.891 -23076342.026 10 0 60328 65700.00000 0 11299180.295 -279946.555 -22843738.357 10 0 60328 66600.00000 0 12367160.409 2290914.040 -22166416.693 10 0 60328 67500.00000 0 13573064.842 4677519.237 -21057511.647 10 0 60328 68400.00000 0 14870954.609 6828491.583 -19538580.370 10 0 60328 69300.00000 0 16207412.030 8702562.379 -17639183.631 10 0 60328 70200.00000 0 17523781.630 10270040.777 -15396308.546 10 0 60328 71100.00000 0 18758652.076 11513795.560 -12853644.124 10 0 60328 72000.00000 0 19850474.104 12429709.341 -10060723.972 10 0 60328 72900.00000 0 20740203.329 13026587.341 -7071953.250 10 0 60328 73800.00000 0 21373855.692 13325526.103 -3945539.543 10 0 60328 74700.00000 0 21704866.863 13358770.506 -742349.389 10 0 60328 75600.00000 0 21696155.416 13168109.187 2475286.216 10 0 60328 76500.00000 0 21321802.189 12802878.117 5644793.006 10 0 60328 77400.00000 0 20568274.829 12317658.522 8704576.511 10 0 60328 78300.00000 0 19435145.977 11769768.153 11595222.414 10 0 60328 79200.00000 0 17935275.133 11216653.138 14260650.371 10 0 60328 80100.00000 0 16094447.080 10713291.534 16649198.709 10 0 60328 81000.00000 0 13950482.384 10309718.465 18714619.221 10 0 60328 81900.00000 0 11551857.714 10048777.215 20416963.499 10 0 60328 82800.00000 0 8955893.971 9964190.601 21723344.675 10 0 60328 83700.00000 0 6226587.603 10079032.912 22608561.044 10 0 60328 84600.00000 0 3432174.908 10404665.833 23055570.921 10 0 60328 85500.00000 0 642529.786 10940182.115 23055810.846 10 0 60329 0.00000 0 -2073498.113 11672379.635 22609352.199 10 0 60329 900.00000 0 -4650697.396 12576266.977 21724893.736 10 0 60329 1800.00000 0 -7029950.873 13616078.341 20419591.328 10 0 60329 2700.00000 0 -9160438.235 14746756.975 18718727.437 10 0 60329 3600.00000 0 -11001492.275 15915844.807 16655226.839 10 0 60329 4500.00000 0 -12524034.574 17065700.414 14269027.083 10 0 60329 5400.00000 0 -13711532.094 18135953.385 11606314.930 10 0 60329 6300.00000 0 -14560435.864 19066093.152 8718642.411 10 0 60329 7200.00000 0 -15080084.157 19798084.443 5661938.540 10 0 60329 8100.00000 0 -15292074.639 20278899.999 2495434.800 10 0 60329 9000.00000 0 -15229131.970 20462864.193 -719475.594 10 0 60329 9900.00000 0 -14933518.408 20313708.615 -3920423.095 10 0 60329 10800.00000 0 -14455054.182 19806252.338 -7045269.182 10 0 60329 11700.00000 0 -13848830.908 18927634.972 -10033312.301 10 0 60329 12600.00000 0 -13172714.474 17678049.065 -12826468.757 10 0 60329 13500.00000 0 -12484742.849 16070939.327 -15370405.304 10 0 60329 14400.00000 0 -11840528.950 14132658.409 -17615600.975 10 0 60329 15300.00000 0 -11290778.696 11901591.795 -19518316.998 10 0 60329 16200.00000 0 -10879029.621 9426786.742 -21041455.438 10 0 60329 17100.00000 0 -10639706.308 6766141.019 -22155289.384 10 0 60329 18000.00000 0 -10596575.550 3984225.900 -22838049.969 10 0 60329 18900.00000 0 -10761667.371 1149833.227 -23076358.341 10 0 60329 19800.00000 0 -11134708.323 -1666651.831 -22865493.732 10 0 60329 20700.00000 0 -11703091.875 -4395943.305 -22209491.925 10 0 60329 21600.00000 0 -12442387.876 -6972500.245 -21121071.750 10 0 60329 22500.00000 0 -13317370.202 -9337015.747 -19621390.619 10 0 60329 23400.00000 0 -14283519.601 -11438645.435 -17739633.496 10 0 60329 24300.00000 0 -15288938.389 -13236882.596 -15512443.080 10 0 60329 25200.00000 0 -16276595.997 -14703001.950 -12983202.209 10 0 60329 26100.00000 0 -17186810.042 -15821012.210 -10201182.658 10 0 60329 27000.00000 0 -17959857.412 -16588078.433 -7220577.316 10 0 60329 27900.00000 0 -18538604.179 -17014397.667 -4099435.257 10 0 60329 28800.00000 0 -18871042.250 -17122534.649 -898521.359 10 0 60329 29700.00000 0 -18912624.689 -16946247.353 2319876.265 10 0 60329 30600.00000 0 -18628300.321 -16528853.751 5493166.741 10 0 60329 31500.00000 0 -17994161.198 -15921210.714 8559679.985 10 0 60329 32400.00000 0 -16998633.230 -15179392.103 11459868.747 10 0 60329 33300.00000 0 -15643159.785 -14362165.527 14137465.215 10 0 60329 34200.00000 0 -13942349.724 -13528375.335 16540569.551 10 0 60329 35100.00000 0 -11923583.890 -12734342.762 18622649.487 10 0 60329 36000.00000 0 -9626096.912 -12031392.926 20343432.316 10 0 60329 36900.00000 0 -7099572.833 -11463612.327 21669672.971 10 0 60329 37800.00000 0 -4402313.118 -11065930.389 22575784.623 10 0 60329 38700.00000 0 -1599052.903 -10862604.535 23044320.958 10 0 60329 39600.00000 0 1241484.511 -10866171.220 23066302.118 10 0 60329 40500.00000 0 4049194.511 -11076905.832 22641379.202 10 0 60329 41400.00000 0 6755252.715 -11482813.223 21777834.965 10 0 60329 42300.00000 0 9294722.510 -12060148.750 20492421.213 10 0 60329 43200.00000 0 11609002.265 -12774447.829 18810036.062 10 0 60329 44100.00000 0 13648012.494 -13582021.116 16763246.942 10 0 60329 45000.00000 0 15372033.746 -14431853.178 14391667.877 10 0 60329 45900.00000 0 16753120.206 -15267825.792 11741202.126 10 0 60329 46800.00000 0 17776031.258 -16031173.380 8863163.728 10 0 60329 47700.00000 0 18438642.831 -16663068.175 5813293.864 10 0 60329 48600.00000 0 18751821.817 -17107226.988 2650690.075 10 0 60329 49500.00000 0 18738768.931 -17312430.078 -563331.766 10 0 60329 50400.00000 0 18433857.549 -17234845.885 -3766421.200 10 0 60329 51300.00000 0 17881017.082 -16840063.075 -6896400.030 10 0 60329 52200.00000 0 17131728.729 -16104743.213 -9892468.897 10 0 60329 53100.00000 0 16242717.771 -15017823.015 -12696389.964 10 0 60329 54000.00000 0 15273439.631 -13581213.802 -15253622.404 10 0 60329 54900.00000 0 14283465.718 -11809966.768 -17514388.209 10 0 60329 55800.00000 0 13329879.516 -9731895.089 -19434647.038 10 0 60329 56700.00000 0 12464793.106 -7386666.697 -20976960.697 10 0 60329 57600.00000 0 11733089.292 -4824403.839 -22111229.903 10 0 60329 58500.00000 0 11170485.136 -2103846.378 -22815288.524 10 0 60329 59400.00000 0 10801999.122 709845.799 -23075343.282 10 0 60329 60300.00000 0 10640887.195 3547560.612 -22886249.892 10 0 60329 61200.00000 0 10688093.073 6338869.630 -22251619.815 10 0 60329 62100.00000 0 10932236.494 9014722.514 -21183755.074 10 0 60329 63000.00000 0 11350140.190 11510087.972 -19703411.991 10 0 60329 63900.00000 0 11907873.492 13766431.138 -17839398.074 10 0 60329 64800.00000 0 12562268.389 15733924.078 -15628009.663 10 0 60329 65700.00000 0 13262843.683 17373297.186 -13112321.201 10 0 60329 66600.00000 0 13954055.283 18657254.321 -10341340.145 10 0 60329 67500.00000 0 14577776.695 19571392.979 -7369044.381 10 0 60329 68400.00000 0 15075903.794 20114591.792 -4253321.537 10 0 60329 69300.00000 0 15392972.617 20298850.292 -1054831.767 10 0 60329 70200.00000 0 15478678.356 20148589.169 2164182.802 10 0 60329 71100.00000 0 15290188.108 19699442.295 5341117.733 10 0 60329 72000.00000 0 14794148.855 18996593.246 8414230.244 10 0 60329 72900.00000 0 13968305.389 18092728.196 11323842.814 10 0 60329 73800.00000 0 12802659.704 17045693.201 14013502.548 10 0 60329 74700.00000 0 11300122.998 15915955.725 16431073.522 10 0 60329 75600.00000 0 9476632.943 14763978.170 18529741.150 10 0 60329 76500.00000 0 7360731.521 13647614.265 20268909.819 10 0 60329 77400.00000 0 4992621.184 12619637.538 21614977.334 10 0 60329 78300.00000 0 2422738.689 11725504.921 22541972.466 10 0 60329 79200.00000 0 -290094.355 11001448.210 23032044.623 10 0 60329 80100.00000 0 -3080867.947 10472972.030 23075797.519 10 0 60329 81000.00000 0 -5880836.937 10153819.873 22672461.562 10 0 60329 81900.00000 0 -8620130.610 10045450.157 21829902.523 10 0 60329 82800.00000 0 -11230411.945 10137043.239 20564466.793 10 0 60329 83700.00000 0 -13647477.970 10406038.348 18900666.327 10 0 60329 84600.00000 0 -15813695.099 10819177.667 16870708.983 10 0 60329 85500.00000 0 -17680169.889 11334013.851 14513882.700 10 0 60330 0.00000 0 -19208566.284 11900818.087 11875804.675 10 0 60330 900.00000 0 -20372495.524 12464809.428 9007547.530 10 0 60330 1800.00000 0 -21158419.521 12968611.578 5964661.841 10 0 60330 2700.00000 0 -21566033.084 13354835.259 2806108.250 10 0 60330 3600.00000 0 -21608106.973 13568676.992 -406877.563 10 0 60330 4500.00000 0 -21309799.047 13560424.990 -3611966.959 10 0 60330 5400.00000 0 -20707461.988 13287766.032 -6746944.640 10 0 60330 6300.00000 0 -19846997.282 12717795.147 -9750915.852 10 0 60330 7200.00000 0 -18781824.359 11828642.090 -12565490.828 10 0 60330 8100.00000 0 -17570550.065 10610644.411 -15135923.151 10 0 60330 9000.00000 0 -16274436.442 9067015.796 -17412179.484 10 0 60330 9900.00000 0 -14954773.448 7213979.506 -19349919.334 10 0 60330 10800.00000 0 -13670267.357 5080359.121 -20911365.311 10 0 60330 11700.00000 0 -12474555.075 2706641.702 -22066046.474 10 0 60330 12600.00000 0 -11413949.307 143550.685 -22791399.781 10 0 60330 13500.00000 0 -10525509.890 -2549813.464 -23073217.522 10 0 60330 14400.00000 0 -9835522.795 -5308188.517 -22905931.544 10 0 60330 15300.00000 0 -9358451.176 -8062630.176 -22292728.283 10 0 60330 16200.00000 0 -9096402.791 -10743153.422 -21245491.917 10 0 60330 17100.00000 0 -9039136.329 -13281425.714 -19784576.319 10 0 60330 18000.00000 0 -9164606.226 -15613399.763 -17938409.877 10 0 60330 18900.00000 0 -9440022.657 -17681775.997 -15742940.648 10 0 60330 19800.00000 0 -9823381.394 -19438191.773 -13240932.545 10 0 60330 20700.00000 0 -10265398.080 -20845045.776 -10481126.416 10 0 60330 21600.00000 0 -10711764.151 -21876881.445 -7517282.755 10 0 60330 22500.00000 0 -11105627.795 -22521271.912 -4407125.310 10 0 60330 23400.00000 0 -11390193.696 -22779170.110 -1211207.057 10 0 60330 24300.00000 0 -11511330.276 -22664710.482 2008278.332 10 0 60330 25200.00000 0 -11420072.932 -22204472.118 5188715.338 10 0 60330 26100.00000 0 -11074916.373 -21436235.899 8268290.922 10 0 60330 27000.00000 0 -10443798.488 -20407289.862 11187199.734 10 0 60330 27900.00000 0 -9505691.487 -19172355.633 13888806.170 10 0 60330 28800.00000 0 -8251732.999 -17791224.540 16320740.448 10 0 60330 29700.00000 0 -6685849.562 -16326203.951 18435907.726 10 0 60330 30600.00000 0 -4824846.313 -14839481.541 20193391.280 10 0 60330 31500.00000 0 -2697959.223 -13390518.162 21559233.257 10 0 60330 32400.00000 0 -345888.570 -12033578.087 22507079.122 10 0 60330 33300.00000 0 2180646.397 -10815498.969 23018674.703 10 0 60330 34200.00000 0 4822771.937 -9773793.510 23084207.573 10 0 60330 35100.00000 0 7515666.822 -8935160.647 22702487.350 10 0 60330 36000.00000 0 10191021.453 -8314466.904 21880962.337 10 0 60330 36900.00000 0 12779648.447 -7914239.021 20635572.680 10 0 60330 37800.00000 0 15214137.995 -7724687.920 18990443.006 10 0 60330 38700.00000 0 17431449.453 -7724262.130 16977420.123 10 0 60330 39600.00000 0 19375333.069 -7880707.096 14635464.078 10 0 60330 40500.00000 0 20998482.527 -8152585.846 12009903.394 10 0 60330 41400.00000 0 22264329.770 -8491197.437 9151567.779 10 0 60330 42300.00000 0 23148407.965 -8842812.886 6115814.022 10 0 60330 43200.00000 0 23639226.060 -9151134.959 2961462.857 10 0 60330 44100.00000 0 23738618.351 -9359878.448 -250333.422 10 0 60330 45000.00000 0 23461554.155 -9415362.264 -3457271.267 10 0 60330 45900.00000 0 22835415.096 -9269003.675 -6597101.530 10 0 60330 46800.00000 0 21898769.778 -8879608.795 -9608837.151 10 0 60330 47700.00000 0 20699696.749 -8215361.591 -12433939.284 10 0 60330 48600.00000 0 19293725.718 -7255426.038 -15017458.447 10 0 60330 49500.00000 0 17741483.196 -5991092.119 -17309108.145 10 0 60330 50400.00000 0 16106141.320 -4426415.382 -19264249.521 10 0 60330 51300.00000 0 14450776.998 -2578321.013 -20844767.412 10 0 60330 52200.00000 0 12835752.421 -476165.864 -22019820.255 10 0 60330 53100.00000 0 11316227.164 1839225.245 -22766448.768 10 0 60330 54000.00000 0 9939906.581 4317010.467 -23070031.098 10 0 60330 54900.00000 0 8745121.266 6898210.023 -22924575.134 10 0 60330 55800.00000 0 7759318.414 9517936.145 -22332841.830 10 0 60330 56700.00000 0 6998028.505 12107881.612 -21306296.694 10 0 60330 57600.00000 0 6464350.625 14598963.523 -19864889.972 10 0 60330 58500.00000 0 6148977.786 16924012.098 -18036669.416 10 0 60330 59400.00000 0 6030760.614 19020392.142 -15857232.958 10 0 60330 60300.00000 0 6077784.895 20832447.463 -13369031.813 10 0 60330 61200.00000 0 6248916.495 22313665.704 -10620537.756 10 0 60330 62100.00000 0 6495747.167 23428472.867 -7665291.145 10 0 60330 63000.00000 0 6764857.637 24153582.374 -4560848.866 10 0 60330 63900.00000 0 7000300.732 24478842.426 -1367653.568 10 0 60330 64800.00000 0 7146197.998 24407546.822 1852152.767 10 0 60330 65700.00000 0 7149338.500 23956197.222 5035946.753 10 0 60330 66600.00000 0 6961668.640 23153728.186 8121848.221 10 0 60330 67500.00000 0 6542566.713 22040229.138 11049926.904 10 0 60330 68400.00000 0 5860805.455 20665218.524 13763367.119 10 0 60330 69300.00000 0 4896119.403 19085544.135 16209567.583 10 0 60330 70200.00000 0 3640310.844 17362998.772 18341155.208 10 0 60330 71100.00000 0 2097847.867 15561752.041 20116893.814 10 0 60330 72000.00000 0 285929.530 13745706.244 21502471.186 10 0 60330 72900.00000 0 -1765984.640 11975886.524 22471150.400 10 0 60330 73800.00000 0 -4017161.325 10307973.556 23004274.232 10 0 60330 74700.00000 0 -6417055.546 8790080.593 23091614.217 10 0 60330 75600.00000 0 -8907188.136 7460865.981 22731558.830 10 0 60330 76500.00000 0 -11423361.520 6348058.193 21931138.069 10 0 60330 77400.00000 0 -13898123.065 5467453.180 20705884.504 10 0 60330 78300.00000 0 -16263375.137 4822424.335 19079533.607 10 0 60330 79200.00000 0 -18453025.083 4403964.249 17083568.840 10 0 60330 80100.00000 0 -20405566.447 4191255.616 14756619.662 10 0 60330 81000.00000 0 -22066485.418 4152746.860 12143723.150 10 0 60330 81900.00000 0 -23390393.353 4247687.178 9295462.401 10 0 60330 82800.00000 0 -24342797.115 4428056.649 6266997.302 10 0 60330 83700.00000 0 -24901433.632 4640810.423 3117005.363 10 0 60330 84600.00000 0 -25057112.790 4830342.744 -93447.747 10 0 60330 85500.00000 0 -24814032.990 4941067.015 -3302086.657 10 0 60331 0.00000 0 -24189555.557 4920002.913 -6446630.980 10 0 60331 900.00000 0 -23213446.305 4719260.851 -9466004.604 10 0 60331 1800.00000 0 -21926616.184 4298318.084 -12301521.750 10 0 60331 2700.00000 0 -20379411.979 3625989.174 -14898032.034 10 0 60331 3600.00000 0 -18629528.965 2682006.076 -17204997.639 10 0 60331 4500.00000 0 -16739632.353 1458139.445 -19177482.807 10 0 60331 5400.00000 0 -14774787.105 -41188.104 -20777035.629 10 0 60331 6300.00000 0 -12799803.764 -1798824.681 -21972444.494 10 0 60331 7200.00000 0 -10876611.575 -3785353.134 -22740353.975 10 0 60331 8100.00000 0 -9061769.108 -5960078.836 -23065727.711 10 0 60331 9000.00000 0 -7404216.750 -8272501.699 -22942148.838 10 0 60331 9900.00000 0 -5943365.374 -10664212.144 -22371951.646 10 0 60331 10800.00000 0 -4707601.240 -13071132.874 -21366181.462 10 0 60331 11700.00000 0 -3713269.642 -15426013.381 -19944383.104 10 0 60331 12600.00000 0 -2964179.592 -17661073.210 -18134221.663 10 0 60331 13500.00000 0 -2451649.694 -19710683.460 -15970942.741 10 0 60331 14400.00000 0 -2155092.408 -21513974.103 -13496682.543 10 0 60331 15300.00000 0 -2043110.932 -23017257.553 -10759641.383 10 0 60331 16200.00000 0 -2075061.080 -24176166.587 -7813137.084 10 0 60331 17100.00000 0 -2203010.640 -24957416.682 -4714557.292 10 0 60331 18000.00000 0 -2374011.713 -25340118.768 -1524231.991 10 0 60331 18900.00000 0 -2532588.258 -25316587.558 1695750.815 10 0 60331 19800.00000 0 -2623331.951 -24892612.040 4882762.096 10 0 60331 20700.00000 0 -2593495.060 -24087177.811 7974856.733 10 0 60331 21600.00000 0 -2395469.477 -22931654.094 10911981.679 10 0 60331 22500.00000 0 -1989046.273 -21468480.921 13637143.247 10 0 60331 23400.00000 0 -1343359.807 -19749412.958 16097510.603 10 0 60331 24300.00000 0 -438434.184 -17833394.694 18245434.183 10 0 60331 25200.00000 0 733733.080 -15784156.935 20039359.930 10 0 60331 26100.00000 0 2168595.590 -13667635.530 21444622.562 10 0 60331 27000.00000 0 3849014.840 -11549320.073 22434103.749 10 0 60331 27900.00000 0 5745751.027 -9491642.584 22988743.852 10 0 60331 28800.00000 0 7818467.683 -7551513.843 23097898.654 10 0 60331 29700.00000 0 10017208.706 -5778108.525 22759535.422 10 0 60331 30600.00000 0 12284287.188 -4210989.578 21980265.460 10 0 60331 31500.00000 0 14556508.488 -2878648.096 20775213.049 10 0 60331 32400.00000 0 16767636.474 -1797517.710 19167723.506 10 0 60331 33300.00000 0 18851001.812 -971502.982 17188915.658 10 0 60331 34200.00000 0 20742145.213 -392040.240 14877086.808 10 0 60331 35100.00000 0 22381386.897 -38687.355 12276980.725 10 0 60331 36000.00000 0 23716216.245 119782.755 9438931.741 10 0 60331 36900.00000 0 24703402.614 123831.011 6417900.402 10 0 60331 37800.00000 0 25310739.445 21208.594 3272418.283 10 0 60331 38700.00000 0 25518348.622 -135297.402 63461.508 10 0 60331 39600.00000 0 25319489.972 -290334.188 -3146725.785 10 0 60331 40500.00000 0 24720841.228 -388565.149 -6295835.616 10 0 60331 41400.00000 0 23742235.740 -377254.057 -9322704.692 10 0 60331 42300.00000 0 22415867.840 -208741.925 -12168503.695 10 0 60331 43200.00000 0 20784998.182 157289.047 -14777883.890 10 0 60331 44100.00000 0 18902212.360 751861.265 -17100058.371 10 0 60331 45000.00000 0 16827305.044 1595141.320 -19089796.368 10 0 60331 45900.00000 0 14624877.719 2695340.917 -20708310.791 10 0 60331 46800.00000 0 12361750.205 4048127.403 -21924021.225 10 0 60331 47700.00000 0 10104294.141 5636570.688 -22713177.032 10 0 60331 48600.00000 0 7915799.892 7431630.705 -23060327.969 10 0 60331 49500.00000 0 5853987.007 9393166.805 -22958632.727 10 0 60331 50400.00000 0 3968762.356 11471428.212 -22409998.895 10 0 60331 51300.00000 0 2300319.679 13608964.344 -21425051.219 10 0 60331 52200.00000 0 877659.856 15742875.836 -20022928.316 10 0 60331 53100.00000 0 -282406.475 17807312.398 -18230911.462 10 0 60331 54000.00000 0 -1175732.768 19736113.020 -16083892.398 10 0 60331 54900.00000 0 -1810767.904 21465477.657 -13623690.407 10 0 60331 55800.00000 0 -2207949.058 22936557.939 -10898232.103 10 0 60331 56700.00000 0 -2398583.085 24097857.681 -7960610.214 10 0 60331 57600.00000 0 -2423265.296 24907341.907 -4868040.319 10 0 60331 58500.00000 0 -2329904.122 25334165.389 -1680736.698 10 0 60331 59400.00000 0 -2171437.040 25359947.936 1539269.778 10 0 60331 60300.00000 0 -2003336.140 24979543.021 4729347.664 10 0 60331 61200.00000 0 -1881010.535 24201267.944 7827490.082 10 0 60331 62100.00000 0 -1857216.827 23046586.658 10773524.258 10 0 60331 63000.00000 0 -1979588.265 21549259.744 13510281.381 10 0 60331 63900.00000 0 -2288387.552 19753998.207 15984703.704 10 0 60331 64800.00000 0 -2814578.521 17714678.530 18148867.555 10 0 60331 65700.00000 0 -3578297.971 15492194.667 19960903.043 10 0 60331 66600.00000 0 -4587791.753 13152037.213 21385793.536 10 0 60331 67500.00000 0 -5838859.538 10761700.836 22396040.663 10 0 60331 68400.00000 0 -7314831.329 8388027.498 22972183.342 10 0 60331 69300.00000 0 -8987076.677 6094595.136 23103162.143 10 0 60331 70200.00000 0 -10816025.554 3939259.030 22786523.204 10 0 60331 71100.00000 0 -12752658.867 1971946.308 22028458.694 10 0 60331 72000.00000 0 -14740407.309 232793.445 20843683.649 10 0 60331 72900.00000 0 -16717380.581 -1249297.768 19255151.717 10 0 60331 73800.00000 0 -18618835.439 -2457627.452 17293615.066 10 0 60331 74700.00000 0 -20379781.060 -3388149.311 14997036.328 10 0 60331 75600.00000 0 -21937614.395 -4049389.119 12409863.048 10 0 60331 76500.00000 0 -23234676.632 -4461834.275 9582177.563 10 0 60331 77400.00000 0 -24220624.698 -4656820.498 6568737.634 10 0 60331 78300.00000 0 -24854519.017 -4674962.579 3427925.361 10 0 60331 79200.00000 0 -25106540.054 -4564195.193 220623.780 10 0 60331 80100.00000 0 -24959261.214 -4377506.170 -2990957.672 10 0 60331 81000.00000 0 -24408423.883 -4170457.791 -6144486.464 10 0 60331 81900.00000 0 -23463180.969 -3998600.824 -9178715.829 10 0 60331 82800.00000 0 -22145797.421 -3914890.878 -12034675.522 10 0 60331 83700.00000 0 -20490818.951 -3967216.834 -14656821.075 10 0 60331 84600.00000 0 -18543742.527 -4196146.715 -16994118.759 10 0 60331 85500.00000 0 -16359243.218 -4632987.392 -19001044.652 99